EW6942 Weather Reports


time (UTC)temp
C
wind
direction
speed
KPH
gust
KPH
rain 1hr
cm
rain 24hr
cm
rain mn
cm
humidity
%
barometer
mb
20260505124503 17 74 3.2 6.4 0.00 0.00 0.00 73 1017.3
20260505123101 16 104 1.6 4.8 0.00 0.00 0.00 75 1017.1
20260505121557 15 98 0.0 3.2 0.00 0.00 0.00 76 1017.1
20260505120105 15 88 0.0 3.2 0.00 0.00 0.00 77 1017.1
20260505114555 13 141 0.0 0.0 0.00 0.00 0.00 80 1017.1
20260505113112 12 141 0.0 0.0 0.00 0.00 0.00 83 1017.0
20260505111552 11 141 0.0 0.0 0.00 0.00 0.00 85 1016.8
20260505101546 10 142 0.0 0.0 0.00 0.00 0.00 87 1016.2
20260505100046 10 174 0.0 0.0 0.00 0.00 0.00 86 1016.2
20260505094544 10 175 0.0 0.0 0.00 0.00 0.00 86 1016.1
20260505093048 10 111 0.0 0.0 0.00 0.00 0.00 86 1016.1
20260505091541 10 110 0.0 0.0 0.00 0.00 0.00 85 1015.8
20260505090039 10 110 0.0 0.0 0.00 0.00 0.00 84 1015.8
20260505084545 10 110 0.0 0.0 0.00 0.00 0.00 84 1015.6
20260505083042 11 110 0.0 0.0 0.00 0.00 0.00 84 1015.5
20260505081533 11 110 0.0 0.0 0.00 0.00 0.00 82 1015.4
20260505080030 11 110 0.0 0.0 0.00 0.00 0.00 81 1015.3
20260505074528 12 110 0.0 0.0 0.00 0.00 0.00 79 1015.3
20260505073027 12 110 0.0 1.6 0.00 0.00 0.00 78 1015.3
20260505071524 12 77 0.0 0.0 0.00 0.00 0.00 77 1015.2
20260505070023 12 80 0.0 3.2 0.00 0.00 0.00 75 1015.4
20260505064521 13 104 0.0 3.2 0.00 0.00 0.00 74 1015.4
20260505063025 13 58 0.0 4.8 0.00 0.00 0.00 74 1015.5
20260505061520 13 111 0.0 1.6 0.00 0.00 0.00 75 1015.7
20260505060013 13 102 0.0 0.0 0.00 0.00 0.00 74 1015.7
20260505054511 13 102 0.0 1.6 0.00 0.00 0.00 73 1015.8
20260505053008 13 103 0.0 1.6 0.00 0.00 0.00 72 1016.0
20260505051510 14 99 0.0 0.0 0.00 0.00 0.00 71 1016.2
20260505041558 15 101 1.6 3.2 0.00 0.00 0.00 68 1016.2
20260505040054 16 86 0.0 3.2 0.00 0.00 0.00 67 1016.1
20260505034614 16 96 1.6 4.8 0.00 0.00 0.00 65 1016.3
20260505033056 17 103 1.6 6.4 0.00 0.00 0.00 64 1016.3
20260505031555 17 92 1.6 8.0 0.00 0.00 0.00 63 1016.3
20260505030053 17 97 3.2 9.7 0.00 0.00 0.00 62 1016.3
20260505024551 17 82 3.2 8.0 0.00 0.00 0.00 62 1016.2
20260505023050 18 117 1.6 8.0 0.00 0.00 0.00 61 1016.2
20260505021551 18 65 1.6 11.3 0.00 0.00 0.00 60 1016.1
20260505020049 18 72 6.4 20.9 0.00 0.00 0.00 59 1016.0
20260505014549 18 103 3.2 12.9 0.00 0.00 0.00 60 1015.9
20260505013049 19 97 3.2 6.4 0.00 0.00 0.00 59 1015.8
20260505011606 20 75 6.4 12.9 0.00 0.00 0.00 56 1015.5
20260505010049 20 95 4.8 16.1 0.00 0.00 0.00 55 1015.3
20260505004546 20 77 6.4 16.1 0.00 0.00 0.00 54 1015.1
20260505003047 21 125 6.4 14.5 0.00 0.00 0.00 53 1014.8
20260505001551 21 73 8.0 12.9 0.00 0.00 0.00 49 1014.7
20260505000058 22 97 0.0 3.2 0.00 0.00 0.00 47 1014.4
20260504234543 22 129 0.0 4.8 0.00 0.00 0.00 43 1014.3
20260504233057 23 65 3.2 11.3 0.00 0.00 0.00 41 1014.3
20260504231541 23 124 4.8 11.3 0.00 0.00 0.00 40 1014.3
20260504230040 23 129 3.2 11.3 0.00 0.00 0.00 37 1014.2
20260504224542 24 55 6.4 12.9 0.00 0.00 0.00 36 1014.1
20260504223038 24 108 3.2 17.7 0.00 0.00 0.00 36 1014.2
20260504221537 24 124 8.0 17.7 0.00 0.00 0.00 35 1014.1
20260504220037 24 84 6.4 19.3 0.00 0.00 0.00 36 1014.2
20260504214535 25 80 9.7 20.9 0.00 0.00 0.00 35 1014.1
20260504213037 25 96 8.0 16.1 0.00 0.00 0.00 35 1014.0
20260504211532 25 152 4.8 17.7 0.00 0.00 0.00 35 1014.0
20260504210032 25 96 6.4 22.5 0.00 0.00 0.00 33 1014.1
20260504204529 25 98 9.7 17.7 0.00 0.00 0.00 32 1014.2
20260504203028 25 75 6.4 12.9 0.00 0.00 0.00 34 1014.4
20260504201526 25 141 6.4 20.9 0.00 0.00 0.00 35 1014.6
20260504200023 25 89 8.0 14.5 0.00 0.00 0.00 35 1014.7
20260504194527 25 101 8.0 16.1 0.00 0.00 0.00 35 1014.9
20260504193018 24 150 8.0 16.1 0.00 0.00 0.00 35 1015.0
20260504191519 24 64 11.3 17.7 0.00 0.00 0.00 35 1015.2
20260504190018 24 39 9.7 19.3 0.00 0.00 0.00 37 1015.3
20260504184512 24 188 4.8 16.1 0.00 0.00 0.00 38 1015.5
20260504183011 24 79 6.4 17.7 0.00 0.00 0.00 38 1015.8
20260504181508 23 61 6.4 17.7 0.00 0.00 0.00 37 1016.0
20260504180007 23 84 4.8 17.7 0.00 0.00 0.00 37 1016.0
20260504174509 23 76 6.4 17.7 0.00 0.00 0.00 38 1016.0
20260504173005 23 176 3.2 11.3 0.00 0.00 0.00 39 1016.1
20260504171501 23 133 6.4 14.5 0.00 0.00 0.00 40 1016.3